Location: Ar Ranvel
(48.3000°N, 4.8833°W)
Time: 03:25:01
(UTC+00:00)

Cosmos 2322 Rocket - Pass Details

Date: 25 October 2021
Orbit: 832 x 851 km, 71.0° (Epoch: 01 December)

Event Time Altitude Azimuth Distance (km) Brightness Sun altitude
Rises 17:48:00 0° 179° (S) 3,363 5.5 -6.6°
Reaches altitude 10° 17:50:35 10° 171° (S) 2,434 4.6 -7.1°
Maximum altitude 17:55:36 36° 106° (ESE) 1,308 2.8 -7.9°
Drops below altitude 10° 18:00:40 10° 42° (NE) 2,455 4.2 -8.7°
Sets 18:03:17 0° 34° (NE) 3,396 4.9 -9.1°
